Richmond, VA

2:48 PM EST on December 05, 2019 (GMT -0500)
Richmond International

Weather History for KRIC - October, 2019

Change the Weather History Date:

Friday, October 25, 2019

  Actual Average Record
Temperature  
Mean Temperature 58 °F 57 °F  
Max Temperature 69 °F 68 °F 83 °F (1921)
Min Temperature 48 °F 45 °F 28 °F (1962)
Degree Days  
Heating Degree Days 6 9  
Month to date heating degree days 99 147  
Since 1 July heating degree days 99 176  
Cooling Degree Days 0 1  
Month to date cooling degree days 70 38  
Year to date cooling degree days 2040 1542  
Growing Degree Days 8 (Base 50)    
Moisture  
Dew Point 54 °F    
Average Humidity 84    
Maximum Humidity 93    
Minimum Humidity 66    
Precipitation  
Precipitation 0.00 in 0.09 in 1.98 in (1913)
Month to date precipitation 3.68 2.37  
Year to date precipitation 36.83 36.49  
Snow  
Snow 0.00 in 0.00 in 0.00 in (2002)
Month to date snowfall 0.0 0.0  
Since 1 July snowfall 0.0 0.0  
Snow Depth 0.00 in    
Sea Level Pressure  
Sea Level Pressure 30.27 in    
Wind  
Wind Speed 1 mph ()    
Max Wind Speed 9 mph    
Max Gust Speed 11 mph    
Visibility 9.8 miles    
Events      
T = Trace of Precipitation, MM = Missing Value Source: Averaged Metar Reports

Daily Weather History Graph

Daily Weather History Graph

Search for Another Location

Airport or City:

Astronomy

Oct. 25, 2019 Rise Set
Actual Time 7:26 AM EDT 6:19 PM EDT
Civil Twilight 7:00 AM EDT 6:46 PM EDT
Nautical Twilight 6:29 AM EDT 7:16 PM EDT
Astronomical Twilight 5:59 AM EDT 7:46 PM EDT
Moon 4:12 AM EDT (10/25) 5:15 PM EDT (10/25)
Length of Visible Light 11h 45m
Length of Day
10h 52m
Waning Crescent, 9% of the Moon is Illuminated
Oct 25
Waning Crescent
Oct 27
New
Nov 4
First Quarter
Nov 12
Full
Nov 19
Last Quarter

Hourly Weather History & Observations

Time (EDT) Temp. Dew Point Humidity Pressure Visibility Wind Dir Wind Speed Gust Speed Precip Events Conditions
12:54 AM 52.0 °F 48.9 °F 89% 30.32 in 10.0 mi Calm Calm - N/A   Clear
1:54 AM 50.0 °F 48.0 °F 93% 30.32 in 10.0 mi Calm Calm - N/A   Scattered Clouds
2:54 AM 51.1 °F 46.9 °F 86% 30.30 in 10.0 mi Calm Calm - N/A   Mostly Cloudy
3:54 AM 51.1 °F 48.0 °F 89% 30.30 in 10.0 mi Calm Calm - N/A   Mostly Cloudy
4:54 AM 50.0 °F 48.0 °F 93% 30.30 in 10.0 mi Calm Calm - N/A   Scattered Clouds
5:54 AM 48.9 °F 46.9 °F 93% 30.30 in 10.0 mi SE 3.5 mph - N/A   Partly Cloudy
6:54 AM 48.0 °F 46.0 °F 93% 30.31 in 10.0 mi Calm Calm - N/A   Scattered Clouds
7:54 AM 48.0 °F 46.0 °F 93% 30.32 in 10.0 mi SSE 3.5 mph - N/A   Mostly Cloudy
8:54 AM 55.0 °F 52.0 °F 89% 30.33 in 8.0 mi Calm Calm - N/A   Mostly Cloudy
9:54 AM 57.9 °F 54.0 °F 87% 30.33 in 8.0 mi Calm Calm - N/A   Mostly Cloudy
10:54 AM 62.1 °F 54.0 °F 75% 30.33 in 9.0 mi WSW 3.5 mph - N/A   Mostly Cloudy
11:54 AM 64.0 °F 55.9 °F 75% 30.31 in 10.0 mi SW 4.6 mph - N/A   Mostly Cloudy
12:54 PM 66.0 °F 55.9 °F 70% 30.28 in 10.0 mi WSW 5.8 mph - N/A   Mostly Cloudy
1:54 PM 66.9 °F 57.0 °F 70% 30.25 in 10.0 mi SSW 3.5 mph - N/A   Overcast
2:54 PM 69.1 °F 57.9 °F 68% 30.23 in 10.0 mi Variable 4.6 mph - N/A   Mostly Cloudy
3:54 PM 68.0 °F 57.9 °F 70% 30.22 in 10.0 mi SSW 5.8 mph - N/A   Overcast
4:33 PM 68.0 °F 57.9 °F 70% 30.19 in 10.0 mi South 4.6 mph - N/A   Overcast
4:54 PM 68.0 °F 59.0 °F 73% 30.21 in 10.0 mi SSE 4.6 mph - N/A   Overcast
5:54 PM 66.9 °F 59.0 °F 76% 30.21 in 10.0 mi Calm Calm - N/A   Mostly Cloudy
6:54 PM 66.2 °F 59.0 °F 78% 30.20 in 10.0 mi Calm Calm - N/A   Mostly Cloudy
7:54 PM 62.1 °F 59.0 °F 90% 30.22 in 10.0 mi Calm Calm - N/A   Mostly Cloudy
8:54 PM 61.0 °F 57.9 °F 90% 30.23 in 10.0 mi Calm Calm - N/A   Mostly Cloudy
9:54 PM 60.1 °F 57.9 °F 93% 30.25 in 10.0 mi Calm Calm - N/A   Mostly Cloudy
10:54 PM 59.0 °F 57.0 °F 93% 30.25 in 10.0 mi Calm Calm - N/A   Overcast
11:54 PM 59.0 °F 57.0 °F 93% 30.23 in 10.0 mi Calm Calm - N/A   Overcast